RH
37 35 34 33 32 31 30 30 32 34 32 31 27 28 29 29 31 30 29 29 27 29 33 37 41 43 47 54 59 60 60 60 56 56 56 52 44 39 37 33 31 27 25 22 18 19 18 18 18 17 18 18 19 19 20 20 22 24 25 26 27 28 28 29 28 28 27 26 26 24 24 24 24 22 21 20 19 19 19 18 18 17 15 15 21 27 30 32 35 36 35 35 36 37 34 30 27
37 37 36 35 34 32 31 31 32 33 31 29 25 26 29 29 31 31 32 29 26 27 30 36 39 40 44 50 55 56 56 57 56 55 52 50 44 37 34 31 31 27 22 21 19 19 18 18 18 19 19 19 19 19 20 21 22 24 25 25 27 29 30 30 28 28 28 26 25 22 21 21 20 19 18 17 17 17 16 17 17 17 16 15 16 21 26 30 32 33 35 37 36 36 34 32 32
34 36 36 36 36 34 33 32 33 34 31 29 25 25 28 29 30 32 33 29 26 25 28 35 37 35 41 49 53 56 58 57 56 56 53 49 43 38 35 32 33 29 23 20 19 19 19 19 19 20 20 20 20 20 20 21 23 24 25 25 27 29 30 30 29 29 29 28 25 22 20 19 17 17 17 16 16 16 16 16 16 17 17 16 14 16 20 25 27 29 31 32 33 33 33 33 33
31 33 35 36 36 36 35 34 34 34 32 30 26 25 28 30 30 31 34 31 29 27 28 34 39 39 42 46 48 55 59 56 53 52 51 47 42 40 38 37 35 31 25 21 19 20 20 20 20 21 21 22 21 21 21 21 23 24 25 26 27 29 30 30 29 29 29 29 25 22 20 18 16 16 16 16 16 16 16 16 17 18 18 16 14 14 17 19 22 24 26 27 29 30 31 32 31
32 32 34 36 37 37 36 36 34 33 32 31 27 25 26 30 32 32 34 33 29 28 28 30 40 48 47 44 43 51 54 53 54 50 49 46 40 39 39 40 37 33 29 22 20 20 20 21 21 21 22 22 22 21 21 21 22 24 25 26 28 29 29 30 30 29 29 27 24 21 20 19 16 15 15 16 16 16 16 16 17 18 18 17 16 15 15 17 19 20 22 25 26 27 28 29 29
35 34 34 37 38 36 35 38 37 34 31 30 28 26 26 30 33 34 34 34 31 30 30 29 36 43 45 43 42 48 49 51 55 50 47 44 39 39 40 40 37 34 33 26 21 21 21 21 21 21 22 23 23 21 21 21 22 23 25 26 27 28 29 30 30 29 29 26 22 20 19 20 19 16 15 15 16 16 16 16 17 18 18 18 17 16 15 16 17 19 21 24 26 26 27 28 29
34 35 35 36 38 36 35 37 37 36 33 31 29 27 28 30 33 34 34 34 30 29 29 30 32 34 39 42 44 47 48 49 53 50 48 46 42 41 41 39 37 35 35 30 23 21 21 21 21 22 23 23 23 22 21 21 21 23 24 26 27 28 29 30 30 29 29 26 21 20 20 20 20 18 15 15 16 17 16 16 16 17 18 19 17 16 15 15 16 18 20 22 24 25 26 27 27
33 34 35 35 36 36 36 36 35 34 33 34 31 29 29 30 33 33 34 35 31 27 26 30 32 34 41 44 44 44 45 47 49 49 47 48 46 44 42 38 37 36 37 33 25 23 22 22 22 23 24 24 24 23 22 21 22 23 23 25 26 27 28 29 30 29 28 26 22 20 20 21 21 20 18 16 17 17 17 17 17 17 17 18 18 17 16 16 15 17 19 21 22 23 24 24 25
33 33 34 35 35 35 35 35 35 33 31 35 33 30 30 30 33 33 34 36 32 27 25 29 31 35 41 43 43 42 42 44 46 46 46 48 47 45 44 40 39 37 37 36 28 25 24 24 24 24 25 24 24 24 23 22 22 22 23 24 25 26 27 28 29 30 28 26 23 20 20 21 21 21 21 19 17 18 18 17 17 17 17 17 18 17 17 17 17 17 18 19 20 22 23 23 24
33 33 33 34 34 34 34 33 33 32 30 33 35 31 31 31 32 34 35 35 29 26 25 27 30 34 39 41 43 42 41 42 43 46 47 48 47 47 45 43 41 38 36 37 31 27 27 26 26 26 26 25 24 24 23 23 22 22 23 24 24 25 27 27 29 30 28 25 23 21 20 21 21 21 22 22 19 18 18 18 17 17 17 17 18 18 19 19 19 19 20 21 22 22 22 22 22
34 33 32 33 34 33 33 32 30 31 29 31 34 33 32 32 33 34 35 34 27 26 26 26 31 34 37 42 45 44 41 40 41 44 46 46 45 46 46 44 42 40 38 37 33 29 29 29 28 28 27 26 24 24 24 23 22 22 22 23 24 24 26 27 28 29 27 24 23 22 21 21 21 21 22 24 22 19 17 18 18 17 17 18 19 19 20 21 22 22 22 24 24 22 21 20 20
34 33 32 33 33 32 31 31 29 29 28 29 32 32 32 32 32 32 32 31 28 27 26 25 30 34 40 46 45 44 43 40 41 43 43 44 43 44 47 46 44 43 40 39 37 32 29 29 30 30 28 27 25 23 23 24 22 21 22 23 23 24 26 27 28 29 27 23 22 23 22 21 21 21 22 24 24 21 18 18 19 19 19 20 19 21 22 23 24 24 24 24 24 22 20 20 19
33 33 33 33 31 31 31 30 29 28 28 27 30 32 32 32 31 30 29 30 28 28 27 26 29 33 40 44 44 44 44 42 41 42 42 43 43 43 44 46 45 45 43 42 41 36 31 30 30 30 30 28 26 24 23 23 22 21 22 22 23 24 25 27 27 28 26 23 21 22 23 23 22 22 21 23 24 23 20 18 19 19 20 20 21 21 22 23 25 25 25 24 24 24 22 20 19
33 33 33 32 31 30 30 29 28 28 27 25 27 30 30 31 30 29 29 29 29 28 28 27 27 32 36 40 45 43 42 42 41 41 41 41 42 41 42 43 43 44 45 43 44 42 36 31 30 31 31 30 29 26 24 23 22 21 21 22 23 24 25 26 26 27 26 24 22 21 22 23 23 23 22 22 23 24 22 20 18 18 19 20 20 21 22 22 24 26 25 23 22 24 23 20 21
33 33 33 33 32 30 29 28 28 28 26 24 26 28 29 29 29 28 29 29 29 28 28 27 27 33 37 40 44 42 40 40 40 41 42 43 42 41 42 42 43 43 44 43 43 44 40 33 30 31 32 31 30 28 25 24 23 22 22 23 23 24 25 26 26 27 27 26 23 20 21 22 23 24 24 22 23 23 23 21 18 17 18 18 19 19 20 20 22 25 25 22 19 21 23 23 29
33 34 34 34 32 30 29 27 28 28 26 25 24 27 29 29 29 27 27 28 28 27 27 28 27 30 36 39 42 43 41 38 37 39 41 45 44 43 44 43 43 43 44 42 39 41 41 36 31 30 31 31 31 30 27 25 23 23 24 25 25 25 26 27 26 27 27 27 24 21 20 21 22 24 24 23 23 23 23 22 19 17 17 17 18 18 19 20 21 24 26 23 19 22 28 33 37
34 34 35 34 32 29 28 27 27 27 26 25 24 27 30 29 29 28 27 27 28 28 28 29 26 26 32 36 39 41 39 37 36 38 41 44 45 44 45 45 46 46 46 43 38 37 39 37 33 30 29 29 30 29 28 25 24 26 27 27 26 26 28 28 28 28 28 27 26 22 20 20 22 24 24 23 23 24 23 23 21 18 17 17 18 19 20 21 22 25 26 26 27 32 38 40 41
35 35 34 32 30 28 27 27 27 26 26 26 25 26 28 29 29 29 28 28 28 29 30 31 29 28 32 34 36 38 37 36 36 39 42 44 44 43 44 46 48 48 49 47 43 38 35 36 34 30 29 29 28 28 27 25 25 27 28 28 28 29 30 30 29 28 27 27 27 24 21 20 23 23 23 24 24 25 24 23 22 20 18 18 19 19 21 22 26 31 33 35 38 40 42 42 43
33 33 32 29 26 25 26 27 26 26 26 26 25 25 27 29 29 28 28 28 29 29 29 33 37 37 37 37 37 38 36 34 34 36 39 40 40 40 41 43 43 43 46 47 45 40 34 34 34 31 29 29 28 27 26 25 27 29 29 29 31 33 34 33 31 29 28 27 28 26 23 21 22 23 23 25 26 27 26 24 22 21 20 19 20 20 22 26 34 43 44 43 43 41 41 41 42
29 31 31 27 24 25 26 27 27 26 27 26 26 26 27 29 29 28 27 28 28 30 28 31 40 42 41 41 39 36 34 33 33 34 35 36 37 38 38 39 38 39 41 42 43 40 36 34 34 33 31 30 29 27 27 28 28 30 31 32 34 35 37 37 35 32 29 28 28 27 24 22 21 22 24 27 29 29 29 26 23 22 21 21 21 20 25 35 44 49 50 46 45 47 47 46 47
25 27 28 25 24 25 25 27 27 27 28 27 26 27 27 27 29 29 28 28 28 30 29 27 34 37 36 38 37 34 32 31 32 33 35 36 36 36 36 37 36 36 37 37 38 38 37 35 34 35 35 32 30 29 29 31 32 32 33 34 36 37 38 40 39 36 31 29 28 27 25 23 22 23 26 28 30 31 31 30 26 24 23 22 23 23 30 45 51 51 51 49 51 56 55 54 53
24 24 24 24 25 26 26 26 27 27 28 27 27 27 27 26 27 29 28 28 28 28 28 26 29 33 36 38 40 38 34 34 36 37 39 39 37 35 35 35 34 34 36 35 34 35 35 34 33 36 38 35 32 32 31 33 34 34 35 36 37 37 38 41 43 39 32 29 27 26 24 24 25 25 28 30 30 32 33 33 30 26 24 26 28 30 37 47 52 53 54 56 60 61 57 55 51
24 23 20 21 24 26 27 26 26 27 27 27 26 26 26 27 27 28 28 28 27 25 26 28 29 34 39 42 44 41 39 42 44 44 44 41 37 36 35 35 34 33 35 34 33 34 34 33 33 36 38 37 35 34 34 35 36 36 36 38 38 38 38 41 44 41 33 29 29 26 24 26 27 27 28 30 31 32 35 36 35 31 29 33 38 42 46 48 51 54 56 59 61 57 54 52 48
20 20 19 19 21 24 25 25 26 27 26 27 26 26 26 28 27 26 26 26 27 25 26 30 30 33 35 39 44 42 40 43 47 48 47 42 37 36 35 34 33 34 35 35 33 33 34 33 34 36 38 39 37 36 38 38 38 38 38 40 40 40 39 41 44 43 38 35 35 28 24 28 30 31 31 31 31 33 38 42 45 43 38 41 43 46 50 50 51 56 56 55 55 52 50 49 45
17 15 17 19 21 23 23 24 25 26 26 26 27 26 24 26 27 26 25 25 27 26 27 30 31 33 32 35 44 43 39 41 44 48 48 44 40 38 36 34 33 34 35 35 34 34 34 34 35 36 38 40 38 38 39 38 39 39 40 41 41 41 40 41 45 46 43 40 37 28 25 30 34 38 37 34 34 39 45 50 55 55 48 46 46 48 51 51 53 55 54 52 51 50 47 44 42
16 14 14 17 20 23 24 23 24 24 25 25 26 26 23 24 26 26 25 24 25 27 27 29 31 33 32 34 38 37 35 36 38 43 47 45 44 42 38 35 33 34 36 35 34 34 34 34 36 37 39 40 41 40 39 39 40 40 41 41 42 43 40 43 47 47 45 42 36 27 27 35 41 45 43 39 41 47 53 55 60 62 58 52 49 50 51 53 55 52 52 53 49 46 44 40 40
19 17 15 15 18 21 22 22 22 23 23 23 24 25 22 23 26 25 24 23 24 25 26 28 30 31 30 30 30 28 31 32 31 36 44 45 45 44 39 36 35 35 36 35 35 34 35 35 37 39 39 42 43 42 42 41 41 40 41 41 43 44 41 44 49 48 45 42 36 27 29 38 44 47 46 45 47 52 56 59 62 65 64 57 51 53 54 53 53 52 52 53 47 44 43 39 38
23 21 18 16 16 16 17 18 20 22 22 21 23 24 23 23 24 22 22 23 24 24 24 26 29 31 30 29 27 27 30 33 32 31 37 42 44 44 40 38 36 35 36 35 34 34 35 37 38 40 40 42 43 43 42 40 40 41 41 42 44 44 43 46 50 49 45 41 35 27 28 35 40 45 47 48 48 49 54 62 70 73 72 67 60 56 54 53 52 53 52 49 46 44 43 39 38
26 23 21 18 16 15 14 14 16 19 20 19 22 25 25 22 21 19 20 23 24 23 24 25 27 29 31 31 30 29 30 34 35 30 30 36 41 43 41 39 35 34 34 34 34 34 34 35 38 40 41 41 41 41 41 39 39 40 42 44 45 44 44 47 50 50 45 40 33 28 30 35 39 44 48 48 46 46 51 61 69 73 74 75 73 62 54 55 55 54 54 51 49 47 42 40 38
28 25 23 21 19 15 13 13 13 15 17 18 22 25 22 18 17 17 19 22 23 24 23 24 26 26 30 33 33 35 33 33 33 30 27 31 36 39 38 38 36 33 34 33 32 33 33 33 36 39 40 40 40 41 41 38 37 40 43 44 45 45 46 48 50 50 47 41 34 30 34 40 45 48 50 48 46 47 52 57 64 68 68 69 74 69 57 56 57 56 58 56 53 49 42 38 36
30 28 25 23 21 16 13 14 13 13 14 16 22 22 16 14 14 16 20 22 21 21 21 22 24 26 30 34 37 39 36 34 34 32 29 30 32 35 36 37 37 34 34 33 32 33 33 33 36 38 39 40 40 40 39 37 37 41 44 45 46 46 47 49 50 50 47 44 38 34 37 43 48 51 50 46 45 49 53 58 66 72 72 66 66 67 60 57 58 58 59 57 52 47 41 37 34
33 33 29 23 22 18 14 14 13 13 13 15 18 17 14 13 13 15 18 21 21 20 19 21 22 25 30 34 36 38 37 38 39 35 32 31 31 33 36 38 37 35 34 32 32 32 33 34 35 38 40 40 40 39 37 36 37 40 43 45 46 46 48 50 51 50 48 47 42 37 38 44 49 50 48 44 44 49 53 58 66 71 74 71 67 67 63 59 59 58 57 55 49 42 39 38 34
33 35 33 26 23 20 16 14 14 15 15 15 15 13 13 13 13 14 16 18 20 20 20 21 22 24 29 33 34 35 37 39 39 36 32 31 31 33 36 38 36 35 34 32 32 32 33 34 36 38 41 41 40 39 37 36 37 40 43 45 46 47 48 49 51 51 48 48 46 41 40 44 49 50 48 48 48 49 52 57 65 70 73 73 69 67 65 60 58 58 54 51 47 40 38 37 34
33 33 34 30 25 23 19 15 14 15 17 15 13 13 13 13 13 13 14 15 16 18 19 20 22 22 27 34 33 32 36 36 35 35 33 31 31 32 34 36 35 35 33 31 31 32 33 34 37 39 41 41 39 38 37 36 38 41 43 44 45 47 48 49 50 49 48 49 48 44 42 44 48 50 51 52 52 51 54 60 66 69 71 72 70 68 66 62 61 58 51 47 44 40 37 35 34
33 33 35 33 28 27 22 18 15 15 16 15 15 15 13 12 13 12 12 13 13 14 15 16 18 18 24 34 35 32 34 34 31 32 33 32 31 30 32 34 34 35 33 30 31 32 33 35 39 41 40 40 37 37 36 36 39 41 42 44 44 47 48 48 49 49 50 51 47 44 44 45 48 52 54 55 57 59 61 65 69 69 71 73 72 70 67 64 64 60 49 41 39 39 36 33 34
29 31 35 35 29 27 25 21 18 15 15 15 15 15 14 13 12 13 12 12 13 13 12 13 14 14 17 27 34 33 33 33 30 31 33 31 29 28 29 32 33 33 31 30 30 31 33 36 40 41 40 39 37 36 36 36 39 41 41 43 43 45 44 45 48 50 51 51 47 46 47 48 50 54 59 60 63 67 67 68 72 72 72 74 74 72 68 65 64 59 48 38 33 35 33 30 33
27 28 32 33 30 28 26 24 21 18 16 15 15 14 15 14 13 13 14 13 13 12 13 13 13 13 12 16 26 32 31 30 30 32 31 29 28 26 27 31 33 32 30 29 30 30 33 37 40 41 40 38 36 36 36 36 40 42 42 42 42 42 42 45 50 51 51 48 46 48 50 52 53 55 62 64 66 70 71 71 72 72 74 76 76 75 70 65 63 56 45 36 32 32 28 28 35
24 26 28 30 32 29 26 26 23 21 19 17 16 15 13 14 14 14 14 14 13 12 12 13 12 12 12 11 18 27 28 28 30 31 31 29 27 25 28 33 34 31 29 28 29 29 33 39 42 41 39 36 36 37 35 37 41 42 40 40 39 40 42 46 49 48 46 44 45 49 51 53 53 55 64 70 70 71 73 73 72 72 73 76 78 78 73 66 63 53 41 35 33 32 26 28 37
21 24 26 29 32 30 26 25 24 22 21 20 19 18 15 14 15 14 14 13 12 12 11 12 12 11 12 11 15 25 27 28 29 29 29 28 26 27 31 34 33 30 28 29 29 29 34 41 43 41 38 36 37 36 35 38 42 41 40 38 38 40 42 43 43 41 41 44 48 50 50 51 51 55 64 71 71 70 70 69 69 70 71 74 77 78 73 67 62 51 39 35 33 30 24 25 37
20 21 26 28 30 33 30 24 23 23 21 21 21 21 18 17 16 14 14 13 11 12 10 11 12 11 12 12 15 24 29 28 28 29 29 28 28 29 32 33 32 30 28 29 30 30 34 41 43 40 37 37 37 36 37 39 39 39 40 38 37 38 39 39 39 38 40 46 51 51 52 54 54 56 63 69 70 66 65 63 63 68 72 74 75 75 71 65 59 49 40 36 33 31 26 24 35
21 19 23 27 29 33 32 25 22 23 23 21 22 23 21 18 17 15 13 13 13 12 11 11 13 13 13 13 16 24 28 28 28 29 30 30 29 30 32 32 31 30 29 29 29 30 35 41 42 39 37 37 36 36 38 37 36 39 40 40 39 39 40 42 42 42 44 50 54 55 57 59 60 60 64 70 71 66 62 60 62 68 73 74 73 71 67 60 53 48 44 40 34 33 29 25 34
23 20 18 24 30 30 31 28 24 24 25 22 21 24 23 19 18 18 15 14 14 13 12 11 13 14 14 16 20 26 28 28 28 29 30 31 30 31 32 32 31 29 29 30 29 31 37 41 41 39 37 36 36 37 37 35 35 37 40 40 39 41 44 46 46 47 50 54 57 60 62 64 66 65 66 70 72 69 64 63 65 69 72 73 71 68 63 56 50 49 47 42 35 33 33 28 32
25 21 16 19 28 30 30 31 29 25 22 21 22 23 24 24 21 19 17 14 13 13 13 12 12 14 14 16 22 28 30 30 29 30 31 31 31 32 32 33 32 30 30 30 29 33 39 40 39 39 36 35 36 38 37 35 35 37 39 39 38 43 49 52 53 54 55 57 60 64 67 69 68 68 68 69 70 68 65 67 68 68 71 72 70 66 59 52 50 48 47 44 37 35 36 31 31
26 21 17 17 24 28 28 32 35 31 25 24 25 22 23 26 22 19 18 15 13 12 13 13 12 14 14 15 21 27 29 30 31 31 32 32 31 32 33 34 33 31 30 30 30 35 39 39 38 38 35 34 35 36 36 35 37 39 40 40 42 50 56 56 58 60 61 61 62 66 70 72 72 71 70 70 70 67 66 70 70 70 73 72 69 64 56 52 51 50 48 46 40 37 37 34 32
26 23 22 16 20 26 28 33 38 38 36 31 25 20 20 22 21 21 19 16 15 13 12 13 14 14 14 15 21 27 27 27 30 31 32 32 32 33 36 39 36 31 30 31 33 36 39 38 38 37 34 32 32 33 34 36 40 42 42 44 49 57 61 59 59 61 63 64 65 67 71 74 75 73 72 72 72 70 70 72 73 73 73 73 70 61 54 52 53 53 50 45 39 37 37 36 34
26 29 29 19 17 25 30 36 39 40 43 37 26 19 18 19 21 22 20 17 15 14 12 13 14 14 13 15 22 28 28 28 30 31 31 31 32 35 40 43 38 34 32 32 34 35 36 36 38 36 32 31 31 31 33 38 42 43 42 44 49 55 58 58 59 62 63 63 66 69 71 73 74 74 75 76 74 74 75 75 76 76 74 74 69 58 54 55 55 55 50 39 34 34 36 36 34
29 33 35 26 19 26 36 39 41 46 45 36 28 21 17 20 22 18 17 17 15 15 14 13 14 15 15 16 23 29 30 31 32 32 32 33 34 37 41 42 38 37 35 33 34 35 34 35 37 35 32 31 30 31 36 41 42 40 39 41 45 49 53 55 58 61 61 62 66 70 71 71 73 76 78 78 78 78 79 80 79 78 77 74 64 56 56 57 55 54 45 34 31 34 36 36 34
34 36 37 32 23 31 43 43 47 53 46 32 26 23 20 21 21 16 15 16 16 16 15 14 15 15 16 19 25 29 30 32 33 34 35 36 37 39 42 41 39 40 37 34 35 34 33 35 36 34 32 31 31 34 40 43 40 37 38 41 44 46 49 52 55 58 58 60 65 70 71 71 72 76 80 81 81 81 82 83 82 80 80 73 61 56 58 58 56 51 40 32 31 34 36 36 34
38 39 41 37 30 40 52 51 53 52 39 29 26 24 22 20 18 17 16 15 16 16 14 15 16 15 16 21 28 30 30 32 34 35 36 36 38 40 41 40 40 40 38 36 36 34 33 34 35 33 32 31 33 38 41 41 39 38 39 41 44 46 48 51 54 55 57 59 65 71 73 74 76 78 80 81 82 83 83 84 83 83 79 69 61 59 59 59 56 47 36 32 34 35 36 34 31
40 42 44 39 37 50 57 53 51 43 31 28 27 25 24 22 21 19 17 16 16 16 16 16 17 16 16 22 27 29 30 33 35 35 36 37 37 39 40 39 39 40 39 38 37 34 32 34 34 33 32 32 34 39 41 41 39 39 39 40 44 47 49 51 53 55 58 62 66 70 72 75 79 80 81 81 82 83 82 81 83 84 77 67 62 61 61 60 53 41 34 34 35 35 34 30 25
44 42 43 38 37 46 49 46 44 36 28 29 28 25 24 25 25 21 18 18 17 16 18 19 18 16 16 22 27 30 33 35 36 36 36 37 37 38 38 39 40 39 40 41 39 34 33 33 33 33 33 33 34 37 40 40 40 41 41 42 43 46 48 51 53 55 60 63 64 65 68 72 76 77 79 82 82 82 81 82 84 81 74 67 63 61 62 57 45 36 34 35 35 34 29 25 22
55 48 46 40 34 36 38 39 39 34 32 33 31 26 23 22 23 23 21 18 17 18 20 21 20 16 16 23 28 31 34 36 37 38 38 39 39 37 37 39 41 40 41 42 40 37 35 34 33 33 33 34 33 35 39 41 42 44 44 44 44 45 48 49 52 58 61 62 62 63 67 71 75 77 79 81 82 82 83 85 82 77 71 65 63 64 62 51 39 35 36 36 34 30 25 23 25
61 57 48 34 28 29 36 41 38 35 38 37 31 26 24 23 21 21 21 18 16 18 19 20 21 17 17 23 29 31 33 36 38 39 40 41 40 37 36 39 40 41 41 41 41 41 38 35 33 33 33 34 33 35 38 42 43 44 45 45 44 46 48 49 54 60 61 62 64 66 70 75 77 79 79 80 81 84 86 86 81 74 68 65 65 64 56 44 37 35 36 35 32 27 26 27 30
67 65 47 33 33 34 38 43 40 41 43 36 29 27 27 25 23 22 20 19 18 17 19 22 21 18 17 22 29 31 33 37 40 42 43 41 40 37 37 38 38 39 41 43 45 42 38 36 33 32 33 34 33 35 39 43 43 44 45 46 46 47 48 51 56 60 61 63 66 69 74 78 79 79 80 80 83 85 86 84 79 73 69 67 66 59 48 39 36 35 36 34 31 29 31 32 32
69 65 52 49 52 45 41 44 47 47 43 33 27 27 27 24 23 21 19 18 19 18 20 25 22 19 19 22 29 32 35 39 42 45 45 42 41 39 38 38 38 40 44 46 45 39 35 34 32 32 34 34 35 38 42 44 44 44 46 46 46 47 49 52 57 62 65 67 67 70 74 78 78 79 81 82 83 84 83 80 77 73 70 68 60 49 40 37 37 37 36 34 32 32 33 33 34
64 62 60 59 57 50 42 44 45 45 44 38 31 28 28 26 22 21 20 19 20 19 21 25 24 21 20 22 28 34 37 41 43 45 45 43 43 40 37 36 37 41 44 43 39 34 33 33 32 32 34 35 36 39 43 45 45 45 46 46 47 48 50 54 59 63 67 67 67 71 74 76 77 79 82 83 83 84 82 79 74 68 65 62 51 40 37 38 38 36 34 33 33 34 33 34 36
65 63 63 59 55 49 43 43 40 39 42 41 37 33 29 25 23 22 21 21 20 19 21 23 22 20 19 22 29 36 40 42 43 44 43 43 42 38 35 37 42 46 47 42 35 31 32 32 31 33 34 35 36 38 43 45 45 45 46 47 49 50 53 57 61 65 67 68 70 73 74 75 76 80 83 82 82 84 80 74 68 62 60 55 45 38 37 37 34 33 32 33 34 34 34 35 37
63 61 60 58 55 47 46 48 39 34 37 37 40 40 28 22 24 22 21 23 22 20 21 22 21 20 21 26 34 39 43 44 45 45 44 43 41 38 37 42 49 50 46 41 35 30 30 31 31 34 35 36 36 40 45 46 45 46 46 48 52 55 57 61 64 67 68 70 72 73 73 73 76 79 79 77 80 81 75 68 63 61 57 49 40 37 35 33 31 31 32 34 35 35 35 36 37